Weather History for Macomb, IL

Change the Weather History Date:

Monday, July 8, 2013

  Actual Average (KBRL) Record (KBRL)
Temperature  
Mean Temperature 80 °F 77 °F  
Max Temperature 87 °F 87 °F 105 °F (1936)
Min Temperature 74 °F 67 °F 53 °F (1922)
Degree Days  
Heating Degree Days 0 0  
Month to date heating degree days 0  
Since 1 June heating degree days 13  
Since 1 July heating degree days 0  
Cooling Degree Days 16 12  
Month to date cooling degree days 96  
Year to date cooling degree days 459  
Since 1 June cooling degree days 356  
Growing Degree Days 30 (Base 50)    
Moisture  
Dew Point 72 °F    
Average Humidity 76    
Maximum Humidity 94    
Minimum Humidity 62    
Precipitation  
Precipitation 0.00 in 0.14 in 2.22 in (2003)
Month to date precipitation 1.16  
Year to date precipitation 19.89  
Sea Level Pressure  
Sea Level Pressure 30.03 in    
Wind  
Wind Speed 8 mph (SW)    
Max Wind Speed 15 mph    
Max Gust Speed 20 mph    
Visibility 9 miles    
Events Rain , Thunderstorm    
T = Trace of Precipitation, MM = Missing Value Source: NWS Daily Summary

Daily Weather History Graph

Daily Weather History Graph

Search for Another Location

Airport:

Trip Planner

Search our weather history database for the weather conditions in past years. The results will help you decide how hot, cold, wet, or windy it might be!

Date:

Astronomy

Jul. 08, 2013 Rise Set
Actual Time 5:40 AM CDT 8:35 PM CDT
Civil Twilight 5:07 AM CDT 9:07 PM CDT
Nautical Twilight 4:25 AM CDT 9:49 PM CDT
Astronomical Twilight 3:37 AM CDT 10:36 PM CDT
Moon 6:09 AM CDT (7/8) 8:37 PM CDT (7/8)
Length of Visible Light 16h 00m
Length of Day
14h 55m
New Moon, 0% of the Moon is Illuminated
Jul 8
New Moon
Jul 15
First Quarter
Jul 22
Full
Jul 29
Last Quarter
Aug 6
New

Hourly Weather History & Observations

Time (CDT) Temp. Heat Index Dew Point Humidity Pressure Visibility Wind Dir Wind Speed Gust Speed Precip Events Conditions
12:15 AM 80.4 °F 83.8 °F 70.3 °F 71% 30.03 in 10.0 mi South 5.8 mph - N/A   Mostly Cloudy
12:35 AM 81.1 °F 84.7 °F 70.2 °F 69% 30.03 in 10.0 mi SSW 5.8 mph - N/A   Overcast
12:55 AM 81.1 °F 84.5 °F 69.8 °F 68% 30.03 in 10.0 mi SSW 8.1 mph - N/A   Mostly Cloudy
1:15 AM 81.0 °F 84.4 °F 69.8 °F 69% 30.03 in 10.0 mi SSW 9.2 mph - N/A   Scattered Clouds
1:35 AM 81.1 °F 84.4 °F 69.4 °F 67% 30.03 in 10.0 mi SSW 8.1 mph - N/A   Mostly Cloudy
1:55 AM 81.5 °F 84.6 °F 68.9 °F 65% 30.02 in 10.0 mi SSW 11.5 mph 17.3 mph N/A   Overcast
2:15 AM 81.5 °F 84.4 °F 68.4 °F 64% 30.02 in 10.0 mi SSW 10.4 mph - N/A   Overcast
2:35 AM 81.5 °F 84.1 °F 67.5 °F 62% 30.01 in 10.0 mi SSW 11.5 mph - N/A   Mostly Cloudy
2:55 AM 81.1 °F 83.7 °F 67.6 °F 63% 30.01 in 10.0 mi SSW 11.5 mph 16.1 mph N/A   Mostly Cloudy
3:15 AM 81.0 °F 83.8 °F 68.0 °F 65% 30.00 in 10.0 mi SSW 9.2 mph - N/A   Mostly Cloudy
3:35 AM 80.1 °F 82.7 °F 68.4 °F 67% 30.00 in 10.0 mi SSW 9.2 mph - N/A   Overcast
3:55 AM 79.9 °F - 68.5 °F 68% 30.00 in 10.0 mi SSW 8.1 mph - N/A   Overcast
4:15 AM 79.9 °F - 68.4 °F 68% 30.01 in 10.0 mi SSW 6.9 mph - N/A   Overcast
4:35 AM 79.9 °F - 68.2 °F 67% 30.02 in 10.0 mi SW 6.9 mph - N/A Thunderstorm Overcast
4:55 AM 78.8 °F - 69.4 °F 73% 30.05 in 10.0 mi West 9.2 mph - N/A Rain , Thunderstorm Thunderstorms and Rain
5:15 AM 75.9 °F - 71.1 °F 85% 30.05 in 10.0 mi West 6.9 mph - N/A Rain , Thunderstorm Light Thunderstorms and Rain
5:35 AM 75.4 °F - 71.2 °F 87% 30.05 in 5.0 mi SW 8.1 mph - N/A Rain Rain
5:55 AM 75.2 °F - 70.7 °F 86% 30.04 in 7.0 mi SSW 8.1 mph - N/A Rain , Thunderstorm Light Thunderstorms and Rain
6:15 AM 75.4 °F - 69.8 °F 83% 30.03 in 10.0 mi SSW 8.1 mph - N/A Rain , Thunderstorm Light Thunderstorms and Rain
6:35 AM 75.0 °F - 70.7 °F 86% 30.03 in 10.0 mi South 4.6 mph - N/A   Mostly Cloudy
6:55 AM 75.0 °F - 70.5 °F 86% 30.04 in 10.0 mi SW 10.4 mph - N/A Rain , Thunderstorm Light Thunderstorms and Rain
7:15 AM 74.8 °F - 69.4 °F 83% 30.04 in 10.0 mi SSW 11.5 mph - N/A Rain , Thunderstorm Light Thunderstorms and Rain
7:35 AM 74.5 °F - 69.4 °F 84% 30.04 in 7.0 mi SW 12.7 mph - N/A Rain , Thunderstorm Rain
7:55 AM 74.1 °F - 69.3 °F 85% 30.06 in 7.0 mi WSW 8.1 mph - N/A Rain Light Rain
8:15 AM 75.0 °F - 69.6 °F 83% 30.06 in 10.0 mi SW 10.4 mph - N/A   Overcast
8:35 AM 74.7 °F - 69.8 °F 85% 30.06 in 7.0 mi SW 8.1 mph - N/A Rain , Thunderstorm Light Thunderstorms and Rain
8:55 AM 75.0 °F - 70.2 °F 85% 30.06 in 10.0 mi SW 10.4 mph 18.4 mph N/A Rain Light Rain
9:15 AM 75.6 °F - 70.3 °F 84% 30.07 in 10.0 mi SW 11.5 mph 17.3 mph N/A Rain , Thunderstorm Light Thunderstorms and Rain
9:35 AM 75.2 °F - 70.9 °F 86% 30.07 in 10.0 mi SSW 10.4 mph - N/A Thunderstorm Mostly Cloudy
9:55 AM 76.3 °F - 70.7 °F 83% 30.07 in 10.0 mi SSW 8.1 mph - N/A Rain Light Rain
10:15 AM 77.0 °F - 70.7 °F 81% 30.06 in 10.0 mi SSW 10.4 mph - N/A   Mostly Cloudy
10:35 AM 78.1 °F - 70.7 °F 78% 30.07 in 10.0 mi SW 8.1 mph - N/A   Mostly Cloudy
10:55 AM 78.1 °F - 71.4 °F 80% 30.07 in 10.0 mi SW 9.2 mph - N/A   Overcast
11:15 AM 78.1 °F - 71.1 °F 79% 30.06 in 10.0 mi SSW 10.4 mph - N/A   Overcast
11:35 AM 78.3 °F - 71.2 °F 79% 30.05 in 10.0 mi SSW 11.5 mph - N/A   Overcast
11:55 AM 79.9 °F - 70.7 °F 73% 30.05 in 10.0 mi SW 15.0 mph 19.6 mph N/A   Mostly Cloudy
12:15 PM 79.9 °F - 70.7 °F 73% 30.04 in 10.0 mi SSW 13.8 mph 18.4 mph N/A   Mostly Cloudy
12:35 PM 82.0 °F 86.5 °F 71.4 °F 70% 30.04 in 10.0 mi SSW 10.4 mph 16.1 mph N/A   Scattered Clouds
12:55 PM 82.4 °F 87.2 °F 71.8 °F 70% 30.05 in 10.0 mi SW 12.7 mph 18.4 mph N/A   Scattered Clouds
1:15 PM 83.3 °F 88.4 °F 72.0 °F 68% 30.04 in 10.0 mi SW 10.4 mph 18.4 mph N/A   Scattered Clouds
1:35 PM 84.4 °F 90.3 °F 72.5 °F 67% 30.04 in 10.0 mi SW 11.5 mph 19.6 mph N/A   Scattered Clouds
1:55 PM 83.5 °F 88.5 °F 71.6 °F 67% 30.04 in 10.0 mi SW 13.8 mph 17.3 mph N/A   Mostly Cloudy
2:15 PM 84.6 °F 92.1 °F 74.1 °F 71% 30.03 in 10.0 mi SSW 8.1 mph - N/A   Scattered Clouds
2:35 PM 85.1 °F 92.6 °F 73.9 °F 69% 30.03 in 10.0 mi SW 11.5 mph 19.6 mph N/A   Clear
2:55 PM 85.5 °F 93.0 °F 73.8 °F 68% 30.04 in 10.0 mi SW 11.5 mph - N/A   Clear
3:15 PM 86.0 °F 93.4 °F 73.6 °F 66% 30.04 in 10.0 mi SW 10.4 mph 17.3 mph N/A   Scattered Clouds
3:35 PM 85.3 °F 91.5 °F 72.3 °F 65% 30.03 in 10.0 mi SW 12.7 mph 19.6 mph N/A   Scattered Clouds
3:55 PM 84.7 °F 91.0 °F 72.9 °F 67% 30.03 in 10.0 mi SW 11.5 mph 16.1 mph N/A   Scattered Clouds
4:15 PM 85.6 °F 93.0 °F 73.8 °F 67% 30.03 in 10.0 mi SW 10.4 mph - N/A   Scattered Clouds
4:35 PM 85.5 °F 92.6 °F 73.4 °F 67% 30.03 in 10.0 mi SW 9.2 mph 17.3 mph N/A   Clear
4:55 PM 86.0 °F 93.0 °F 73.2 °F 65% 30.03 in 10.0 mi SW 13.8 mph 18.4 mph N/A   Clear
5:15 PM 86.9 °F 95.4 °F 74.1 °F 66% 30.02 in 10.0 mi WSW 12.7 mph - N/A   Clear
5:35 PM 86.9 °F 95.4 °F 74.1 °F 66% 30.02 in 10.0 mi SW 10.4 mph 17.3 mph N/A   Scattered Clouds
5:55 PM 87.4 °F 95.3 °F 73.4 °F 63% 30.01 in 10.0 mi SW 8.1 mph 18.4 mph N/A   Clear
6:15 PM 86.5 °F 94.2 °F 73.6 °F 65% 30.01 in 10.0 mi SW 8.1 mph - N/A   Clear
6:35 PM 85.5 °F 93.4 °F 74.3 °F 69% 30.01 in 10.0 mi SW 6.9 mph - N/A   Clear
6:55 PM 84.7 °F 92.8 °F 74.7 °F 72% 30.02 in 10.0 mi WSW 6.9 mph - N/A   Clear
7:15 PM 84.2 °F 92.3 °F 75.2 °F 74% 30.02 in 10.0 mi SW 4.6 mph - N/A   Clear
7:35 PM 83.5 °F 91.2 °F 75.2 °F 76% 30.02 in 10.0 mi SW 4.6 mph - N/A   Clear
7:55 PM 82.8 °F 90.7 °F 76.1 °F 80% 30.02 in 10.0 mi SW 3.5 mph - N/A   Clear
8:15 PM 82.4 °F 90.9 °F 77.0 °F 84% 30.02 in 10.0 mi Calm Calm - N/A   Scattered Clouds
8:35 PM 81.3 °F 89.0 °F 77.4 °F 88% 30.02 in 10.0 mi Calm Calm - N/A   Mostly Cloudy
8:55 PM 80.2 °F 86.3 °F 77.2 °F 90% 30.02 in 7.0 mi Calm Calm - N/A   Overcast
9:15 PM 79.9 °F - 77.0 °F 91% 30.02 in 10.0 mi SE 3.5 mph - N/A   Overcast
9:35 PM 79.2 °F - 76.6 °F 92% 30.02 in 7.0 mi South 3.5 mph - N/A   Mostly Cloudy
9:55 PM 78.6 °F - 76.1 °F 92% 30.02 in 7.0 mi South 3.5 mph - N/A   Scattered Clouds
10:15 PM 77.5 °F - 75.4 °F 93% 30.03 in 5.0 mi Calm Calm - N/A   Clear
10:35 PM 78.1 °F - 75.9 °F 93% 30.04 in 7.0 mi Calm Calm - N/A   Clear
10:55 PM 77.9 °F - 75.4 °F 92% 30.03 in 5.0 mi SSW 3.5 mph - N/A   Clear
11:15 PM 77.9 °F - 76.1 °F 94% 30.03 in 5.0 mi Calm Calm - N/A   Clear
11:35 PM 78.4 °F - 76.1 °F 92% 30.03 in 7.0 mi SSW 3.5 mph - N/A   Clear
11:55 PM 79.7 °F - 76.1 °F 89% 30.03 in 10.0 mi SSW 4.6 mph - N/A   Clear